Tracking 30923 objects as of 1-Jul-2025
HD Live streaming from Space Station
objects crossing your sky now

SL-14 DEB

Track SL-14 DEB now!
10-day predictions


NORAD ID: 26030
Int'l Code: 1991-068AU
Perigee: 1,337.9 km
Apogee: 1,462.7 km
Inclination: 82.7 °
Period: 113.6 minutes
Semi major axis: 7771 km
RCS: 0.0026 m2 (small)
Launch date: September 28, 1991
Source: Commonwealth of Independent States (former USSR) (CIS)
Launch site: PLESETSK MISSILE AND SPACE COMPLEX (PKMTR)

Note: This is SATELLITE DEBRIS
Your satellite tracking list
Your tracking list is empty




NASA's NSSDC Master Catalog

Two Line Element Set (TLE):
1 26030U 91068AU  25178.48475380  .00000124  00000-0  58479-3 0  9990
2 26030  82.6761 263.0465 0080278  15.4915   3.4344 12.67250458547687
Source of the keplerian elements: AFSPC